Hourly Weather Abay (Saryagashskiy rayon)

Today, 7 March, Sunday

Time Temperature Precipitation Wind Pressure Humidity
00:00 +7°C° 0.1 mm 2 mps 730 mmHg 60%
01:00 +7°C° 0.1 mm 2 mps 730 mmHg 63%
02:00 +7°C° 0.1 mm 2 mps 730 mmHg 66%
03:00 +7°C° 0.2 mm 3 mps 731 mmHg 71%
04:00 +7°C° 0.2 mm 3 mps 731 mmHg 75%
05:00 +6°C° 0 mm 4 mps 731 mmHg 81%
06:00 +6°C° 0.1 mm 4 mps 731 mmHg 82%
07:00 +6°C° 0.1 mm 4 mps 732 mmHg 83%
08:00 +6°C° 0.1 mm 4 mps 732 mmHg 84%
09:00 +6°C° 0.1 mm 4 mps 732 mmHg 81%
10:00 +7°C° 0.1 mm 3 mps 733 mmHg 78%
11:00 +8°C° 0 mm 2 mps 733 mmHg 75%
12:00 +8°C° 0 mm 2 mps 733 mmHg 73%
13:00 +10°C° 0 mm 1 mps 732 mmHg 71%
14:00 +10°C° 0 mm 1 mps 732 mmHg 69%
15:00 +10°C° 0 mm 1 mps 732 mmHg 65%
16:00 +11°C° 0 mm 1 mps 732 mmHg 62%
17:00 +11°C° 0 mm 1 mps 732 mmHg 59%
18:00 +11°C° 0 mm 1 mps 732 mmHg 62%
19:00 +10°C° 0 mm 1 mps 732 mmHg 66%
20:00 +9°C° 0 mm 1 mps 732 mmHg 69%
21:00 +9°C° 0 mm 1 mps 731 mmHg 70%
22:00 +9°C° 0 mm 1 mps 731 mmHg 72%
23:00 +8°C° 0 mm 1 mps 731 mmHg 73%

Tomorrow, 8 March, Monday

Time Temperature Precipitation Wind Pressure Humidity
00:00 +8°C° 0 mm 1 mps 731 mmHg 73%
01:00 +8°C° 0 mm 1 mps 731 mmHg 73%
02:00 +8°C° 0 mm 1 mps 731 mmHg 72%
03:00 +8°C° 0 mm 1 mps 731 mmHg 74%
04:00 +8°C° 0 mm 1 mps 731 mmHg 76%
05:00 +7°C° 0 mm 1 mps 732 mmHg 78%
06:00 +8°C° 0 mm 1 mps 732 mmHg 77%
07:00 +8°C° 0 mm 1 mps 732 mmHg 75%
08:00 +8°C° 0 mm 1 mps 733 mmHg 74%
09:00 +9°C° 0 mm 2 mps 733 mmHg 68%
10:00 +12°C° 0 mm 2 mps 733 mmHg 62%
11:00 +13°C° 0 mm 2 mps 734 mmHg 55%
12:00 +14°C° 0 mm 2 mps 733 mmHg 51%
13:00 +15°C° 0 mm 2 mps 733 mmHg 47%
14:00 +16°C° 0 mm 2 mps 733 mmHg 43%
15:00 +16°C° 0 mm 1 mps 733 mmHg 43%
16:00 +16°C° 0 mm 1 mps 733 mmHg 42%
17:00 +16°C° 0 mm 1 mps 733 mmHg 42%
18:00 +15°C° 0 mm 1 mps 733 mmHg 46%
19:00 +14°C° 0 mm 1 mps 733 mmHg 50%
20:00 +12°C° 0 mm 1 mps 733 mmHg 54%
21:00 +12°C° 0 mm 2 mps 733 mmHg 56%
22:00 +10°C° 0 mm 2 mps 733 mmHg 58%
23:00 +10°C° 0 mm 3 mps 733 mmHg 59%

Day after tomorrow, 9 March, Tuesday

Time Temperature Precipitation Wind Pressure Humidity
00:00 +10°C° 0 mm 3 mps 733 mmHg 59%
01:00 +10°C° 0 mm 2 mps 732 mmHg 59%
02:00 +9°C° 0 mm 2 mps 732 mmHg 59%
03:00 +9°C° 0 mm 2 mps 732 mmHg 56%
04:00 +9°C° 0 mm 2 mps 731 mmHg 53%
05:00 +9°C° 0 mm 3 mps 731 mmHg 50%
06:00 +9°C° 0 mm 2 mps 731 mmHg 48%
07:00 +9°C° 0 mm 2 mps 730 mmHg 46%
08:00 +9°C° 0 mm 2 mps 730 mmHg 44%
09:00 +12°C° 0 mm 2 mps 730 mmHg 38%
10:00 +14°C° 0 mm 1 mps 730 mmHg 33%
11:00 +16°C° 0 mm 1 mps 729 mmHg 28%
12:00 +18°C° 0 mm 1 mps 729 mmHg 26%
13:00 +19°C° 0 mm 1 mps 729 mmHg 24%
14:00 +20°C° 0 mm 1 mps 728 mmHg 23%
15:00 +20°C° 0 mm 1 mps 728 mmHg 25%
16:00 +19°C° 0 mm 1 mps 727 mmHg 27%
17:00 +19°C° 0 mm 1 mps 727 mmHg 30%
18:00 +17°C° 0 mm 2 mps 727 mmHg 32%
19:00 +16°C° 0 mm 2 mps 727 mmHg 34%
20:00 +15°C° 0 mm 2 mps 727 mmHg 36%
21:00 +15°C° 0 mm 2 mps 727 mmHg 37%
22:00 +15°C° 0 mm 2 mps 727 mmHg 38%
23:00 +15°C° 0 mm 2 mps 726 mmHg 39%

10 March, Wednesday

Time Temperature Precipitation Wind Pressure Humidity
00:00 +15°C° 0 mm 2 mps 726 mmHg 43%
01:00 +14°C° 0 mm 3 mps 726 mmHg 46%
02:00 +13°C° 0 mm 4 mps 726 mmHg 49%
03:00 +13°C° 0 mm 5 mps 725 mmHg 51%
04:00 +13°C° 0 mm 6 mps 725 mmHg 53%
05:00 +12°C° 0 mm 7 mps 725 mmHg 55%
06:00 +13°C° 0 mm 6 mps 726 mmHg 55%
07:00 +13°C° 0 mm 5 mps 726 mmHg 56%
08:00 +13°C° 0 mm 4 mps 727 mmHg 56%
09:00 +14°C° 0 mm 5 mps 728 mmHg 55%
10:00 +15°C° 0 mm 5 mps 728 mmHg 53%
11:00 +16°C° 0 mm 6 mps 729 mmHg 51%
12:00 +16°C° 0.2 mm 5 mps 729 mmHg 46%
13:00 +18°C° 0.2 mm 4 mps 729 mmHg 41%
14:00 +18°C° 0.2 mm 4 mps 729 mmHg 37%
15:00 +17°C° 0 mm 4 mps 730 mmHg 39%
16:00 +17°C° 0 mm 4 mps 730 mmHg 41%
17:00 +15°C° 0 mm 4 mps 730 mmHg 44%
18:00 +13°C° 0.2 mm 4 mps 730 mmHg 52%
19:00 +10°C° 0.2 mm 5 mps 731 mmHg 60%
20:00 +9°C° 0.2 mm 6 mps 731 mmHg 69%
21:00 +7°C° 1.7 mm 6 mps 731 mmHg 73%
22:00 +5°C° 1.7 mm 6 mps 731 mmHg 78%
23:00 +4°C° 1.7 mm 6 mps 731 mmHg 83%

11 March, Thursday

Time Temperature Precipitation Wind Pressure Humidity
00:00 +3°C° 0.8 mm 5 mps 731 mmHg 83%
01:00 +3°C° 0.8 mm 5 mps 731 mmHg 83%
02:00 +3°C° 0.8 mm 4 mps 731 mmHg 83%
03:00 +3°C° 0.3 mm 3 mps 732 mmHg 82%
04:00 +4°C° 0.3 mm 2 mps 732 mmHg 82%
05:00 +4°C° 0.3 mm 2 mps 733 mmHg 81%
06:00 +4°C° 0 mm 2 mps 733 mmHg 82%
07:00 +4°C° 0 mm 2 mps 733 mmHg 84%
08:00 +4°C° 0 mm 2 mps 733 mmHg 85%
09:00 +5°C° 0 mm 2 mps 733 mmHg 79%
10:00 +7°C° 0 mm 1 mps 733 mmHg 72%
11:00 +7°C° 0 mm 0 mps 733 mmHg 66%
12:00 +9°C° 0 mm 1 mps 733 mmHg 61%
13:00 +10°C° 0 mm 1 mps 733 mmHg 56%
14:00 +10°C° 0 mm 2 mps 732 mmHg 51%
15:00 +10°C° 0 mm 2 mps 732 mmHg 48%
16:00 +12°C° 0 mm 2 mps 732 mmHg 46%
17:00 +12°C° 0 mm 2 mps 732 mmHg 44%
18:00 +11°C° 0 mm 1 mps 732 mmHg 48%
19:00 +10°C° 0 mm 1 mps 732 mmHg 53%
20:00 +9°C° 0 mm 1 mps 732 mmHg 58%
21:00 +8°C° 0 mm 1 mps 732 mmHg 59%
22:00 +7°C° 0 mm 2 mps 732 mmHg 61%
23:00 +7°C° 0 mm 2 mps 732 mmHg 63%

12 March, Friday

Time Temperature Precipitation Wind Pressure Humidity
00:00 +6°C° 0 mm 2 mps 731 mmHg 60%
01:00 +6°C° 0 mm 2 mps 730 mmHg 58%
02:00 +6°C° 0 mm 2 mps 729 mmHg 56%
03:00 +6°C° 0 mm 2 mps 729 mmHg 52%
04:00 +6°C° 0 mm 2 mps 728 mmHg 48%
05:00 +5°C° 0 mm 2 mps 728 mmHg 44%
06:00 +6°C° 0 mm 2 mps 727 mmHg 44%
07:00 +6°C° 0 mm 2 mps 727 mmHg 43%
08:00 +7°C° 0 mm 2 mps 726 mmHg 42%
09:00 +9°C° 0 mm 2 mps 726 mmHg 37%
10:00 +12°C° 0 mm 1 mps 725 mmHg 31%
11:00 +14°C° 0 mm 1 mps 725 mmHg 26%
12:00 +15°C° 0 mm 1 mps 725 mmHg 25%
13:00 +16°C° 0 mm 1 mps 724 mmHg 25%
14:00 +16°C° 0 mm 1 mps 724 mmHg 24%
15:00 +16°C° 0 mm 1 mps 724 mmHg 27%
16:00 +16°C° 0 mm 1 mps 724 mmHg 30%
17:00 +16°C° 0 mm 1 mps 724 mmHg 33%
18:00 +16°C° 0 mm 2 mps 724 mmHg 34%
19:00 +14°C° 0 mm 3 mps 725 mmHg 36%
20:00 +13°C° 0 mm 3 mps 725 mmHg 38%
21:00 +13°C° 0 mm 3 mps 725 mmHg 38%
22:00 +14°C° 0 mm 3 mps 726 mmHg 38%
23:00 +15°C° 0 mm 2 mps 726 mmHg 38%
Show more